Location: Leipzig
(51.3392°N, 12.3528°E)
Time: 01:47:14
(UTC+02:00)

ISS - Visible Passes

Search period start: 22 October 2019 00:00
Search period end: 31 October 2019 23:00
Orbit: 411 x 421 km, 51.6° (Epoch: 21 October)

Date Brightness Start Highest point End Pass type
(mag) Time Alt. Az. Time Alt. Az. Time Alt. Az.
24 Oct -0.7 06:51:01 10° SSE 06:52:35 13° SE 06:54:08 10° ESE visible
26 Oct -1.6 06:48:54 10° SSW 06:51:43 25° SSE 06:54:33 10° E visible
27 Oct -1.2 05:00:57 10° S 05:03:17 18° SE 05:05:37 10° E visible
28 Oct -0.8 04:14:38 12° SE 04:14:53 12° SE 04:16:13 10° ESE visible
28 Oct -2.8 05:47:44 10° SW 05:50:59 46° SSE 05:54:14 10° E visible
29 Oct -2.3 05:01:14 25° SSW 05:02:26 33° SSE 05:05:31 10° E visible
30 Oct -1.4 04:14:50 21° ESE 04:14:50 21° ESE 04:16:41 10° E visible
30 Oct -3.6 05:47:44 16° WSW 05:50:19 74° SSE 05:53:41 10° E visible
31 Oct -3.5 05:01:13 51° SSW 05:01:41 58° SSE 05:05:01 10° E visible
